Wetbulb
63.50 64.19 64.00 63.64 64.22 63.30 63.78 63.65 64.68 64.56 64.74 64.30 64.54 64.66 64.56 63.76 63.76 64.51 64.96 64.49 64.54 64.66
64.21 64.31 64.52 64.16 64.51 63.92 64.25 63.70 64.47 64.57 64.18 64.81 64.64 63.94 64.99 63.64 63.52 64.28 63.69 61.47 60.96 62.31
64.52 65.29 64.57 64.73 64.12 64.31 64.42 64.33 64.41 64.30 64.49 64.63 64.92 64.59 64.72 63.81 64.45 63.89 63.17 63.17 63.49 63.67
64.77 63.80 63.98 64.73 65.13 64.59 64.98 64.46 64.06 64.00 64.32 64.56 62.47 62.80 63.11 63.39 62.69 61.84 62.42 63.22 62.62 62.82
64.13 63.40 63.84 64.24 64.25 64.81 64.96 64.94 64.05 63.85 63.92 61.59 61.13 61.98 62.06 61.62 61.85 62.35 60.95 61.79 61.91 62.36
63.83 62.86 63.44 64.46 64.73 64.94 64.88 64.65 64.27 63.87 63.40 61.28 61.20 62.10 62.45 62.01 61.71 62.19 62.45 62.18 62.29 62.53
63.76 63.17 63.91 64.76 64.97 65.27 65.00 64.48 64.16 64.27 63.35 61.10 61.36 61.54 61.56 61.91 62.28 62.27 62.26 63.28 64.35 64.03
63.93 63.73 64.08 64.56 64.50 64.89 65.03 64.56 64.39 64.24 63.64 60.86 60.70 60.65 61.45 61.75 62.27 62.38 62.35 62.82 62.61 63.54
63.88 63.26 63.82 64.41 64.24 64.59 64.44 64.23 64.08 63.82 63.66 61.55 59.86 49.91 53.45 58.75 61.51 62.21 62.47 61.23 62.19 61.25
63.25 62.81 63.78 63.54 63.44 64.30 64.46 64.69 64.15 63.27 63.56 60.73 59.52 48.68 50.31 53.88 62.37 62.71 62.18 62.16 62.19 60.46
62.85 62.77 63.29 62.79 61.98 63.44 64.61 64.10 61.90 61.66 61.54 60.79 58.14 46.51 48.32 52.43 62.99 62.50 63.04 63.10 62.38 61.28
63.23 62.46 62.83 61.77 61.29 62.12 62.94 63.25 60.96 61.17 60.40 58.04 54.09 45.78 47.41 56.62 61.54 61.25 62.45 62.75 62.83 63.19
63.31 62.96 62.26 62.46 61.37 61.93 63.13 62.85 63.59 61.63 60.62 54.97 57.20 45.06 47.59 56.46 60.42 59.78 59.99 61.99 61.99 51.74
63.52 63.97 63.72 63.64 62.09 62.27 62.42 63.03 63.08 62.55 61.93 61.24 59.11 53.05 46.14 50.49 61.90 61.49 60.15 60.82 60.45 59.73
MSLP
1008.09 1008.14 1008.28 1008.33 1008.32 1008.54 1008.44 1008.53 1008.89 1008.95 1009.14 1009.20 1009.30 1009.48 1009.61 1009.70 1009.87 1010.14 1010.17 1010.17 1010.49 1010.59
1007.96 1008.18 1008.20 1008.28 1008.51 1008.46 1008.58 1008.68 1008.86 1009.02 1009.17 1009.17 1009.29 1009.52 1009.66 1009.68 1009.89 1010.08 1010.38 1010.65 1010.81 1010.94
1007.82 1008.05 1008.14 1008.30 1008.36 1008.39 1008.56 1008.74 1008.89 1009.09 1009.23 1009.26 1009.37 1009.64 1009.73 1009.84 1009.90 1010.09 1010.55 1010.72 1010.77 1010.97
1007.77 1007.98 1008.09 1008.21 1008.31 1008.37 1008.52 1008.75 1008.97 1009.12 1009.22 1009.48 1009.77 1009.98 1009.96 1010.04 1010.18 1010.38 1010.60 1010.72 1010.91 1011.17
1007.80 1007.95 1008.06 1008.19 1008.33 1008.39 1008.49 1008.82 1009.08 1009.25 1009.34 1009.85 1010.04 1010.12 1010.08 1010.27 1010.35 1010.39 1010.63 1010.91 1011.14 1011.38
1007.79 1007.91 1008.06 1008.26 1008.41 1008.36 1008.54 1008.78 1009.14 1009.30 1009.62 1010.02 1010.23 1010.26 1010.31 1010.51 1010.76 1010.85 1010.96 1011.23 1011.45 1011.62
1007.76 1007.92 1008.13 1008.31 1008.47 1008.47 1008.62 1008.87 1009.21 1009.54 1009.95 1010.30 1010.45 1010.59 1010.73 1010.90 1011.04 1011.26 1011.40 1011.50 1011.56 1011.92
1007.81 1008.04 1008.23 1008.37 1008.60 1008.72 1008.73 1008.97 1009.34 1009.74 1010.24 1010.79 1010.97 1011.11 1011.11 1011.26 1011.40 1011.51 1011.74 1012.02 1012.26 1012.47
1007.75 1008.03 1008.21 1008.47 1008.75 1008.88 1009.07 1009.24 1009.44 1009.78 1010.30 1010.96 1011.35 1011.53 1011.57 1011.67 1011.76 1011.91 1012.02 1012.43 1012.84 1013.24
1007.76 1008.09 1008.22 1008.45 1008.74 1009.06 1009.27 1009.58 1009.78 1010.17 1010.48 1011.23 1011.80 1012.02 1012.10 1012.12 1012.04 1012.20 1012.50 1012.72 1013.12 1013.64
1007.62 1008.08 1008.36 1008.56 1008.83 1009.19 1009.45 1009.79 1010.31 1010.68 1011.06 1011.51 1012.15 1012.40 1012.47 1012.46 1012.41 1012.64 1012.80 1013.07 1013.49 1013.93
1007.43 1007.92 1008.32 1008.55 1008.96 1009.34 1009.58 1009.91 1010.45 1010.88 1011.25 1011.76 1012.48 1012.61 1012.74 1012.69 1012.75 1012.91 1013.12 1013.49 1013.93 1014.18
1007.30 1007.73 1008.21 1008.61 1009.01 1009.46 1009.65 1009.94 1010.27 1011.06 1011.61 1012.10 1012.61 1012.81 1012.84 1012.96 1013.00 1013.22 1013.60 1013.95 1014.49 1014.99
1007.20 1007.60 1008.10 1008.72 1009.18 1009.47 1009.69 1010.05 1010.44 1011.03 1011.70 1012.13 1012.62 1013.12 1013.21 1013.26 1013.10 1013.27 1013.82 1014.26 1014.89 1015.56
Wind_Speed
4 1 1 1 2 1 3 4 5 4 3 4 5 5 6 5 5 4 2 5 4 2
3 2 0 1 1 3 4 5 5 5 4 4 5 5 5 4 5 5 5 4 2 2
3 1 3 3 4 5 5 6 6 5 4 4 5 5 5 5 5 5 4 4 5 5
4 3 4 3 2 4 6 6 6 6 5 5 5 5 4 5 5 6 6 6 6 7
5 4 4 4 4 5 6 6 6 6 5 5 5 5 6 6 5 6 6 6 7 8
5 4 4 5 4 4 7 8 7 6 6 7 7 7 6 6 6 5 6 7 7 8
5 4 5 5 5 6 7 8 7 7 8 7 7 7 7 7 7 7 7 6 7 9
6 5 6 6 5 6 7 7 7 8 9 8 7 5 8 8 7 8 8 8 7 6
6 6 7 6 6 6 8 8 8 7 8 7 5 8 8 8 7 7 8 8 8 9
7 7 8 7 7 7 8 7 7 6 8 8 8 7 9 8 7 7 8 8 9 7
8 8 7 7 7 7 7 7 6 5 6 8 6 7 8 6 8 7 8 9 9 10
10 9 8 8 7 6 7 6 5 6 7 7 5 5 9 7 6 7 9 10 9 12
10 10 8 8 8 6 7 8 8 9 7 8 6 3 7 6 4 6 6 8 10 10
11 10 9 8 6 8 9 9 9 10 8 8 6 4 4 8 6 9 7 8 7 6
Wind_Direction
162 137 239 259 357 175 186 148 154 139 135 159 162 166 179 188 190 191 210 147 121 121
139 212 174 78 143 145 136 151 146 132 148 162 146 152 151 155 158 164 161 136 146 141
135 168 104 132 147 132 130 148 146 142 151 147 129 139 143 142 153 150 139 147 140 139
130 128 129 139 147 147 138 149 158 158 154 120 123 124 147 141 143 143 147 143 142 129
138 133 125 108 115 136 131 146 159 164 148 123 124 133 136 133 144 145 137 127 129 126
143 119 115 108 115 118 132 138 146 159 139 136 137 137 125 120 127 129 122 128 127 131
142 113 122 106 102 119 119 128 140 142 129 128 127 126 126 127 126 123 120 132 128 128
139 120 128 110 110 124 122 124 130 131 123 121 122 129 130 123 118 120 114 106 97 108
147 130 130 114 108 114 117 129 133 130 127 127 129 128 113 126 120 121 121 113 109 111
146 137 133 119 112 119 125 127 131 133 134 122 130 133 130 136 130 128 128 129 115 101
156 143 140 127 115 123 120 115 108 125 127 129 131 143 146 156 135 127 131 125 124 126
164 157 155 135 127 122 133 122 108 115 118 115 134 154 145 145 128 133 129 127 136 136
176 166 164 142 133 120 134 122 118 111 109 113 128 150 124 104 113 114 116 116 110 92
178 177 165 150 138 130 134 129 126 118 125 124 129 105 118 140 139 135 128 131 129 124